Location: Unspecified
(42.9300°N, 71.1866°W)
Time: 07:25:21
(UTC-05:00)

CZ-3 Stage 3 - Visible Passes

Search period start: 07 December 2016 00:00
Search period end: 17 December 2016 00:00
Orbit: 472 x 34731 km, 30.6° (Epoch: 05 December)

Date Brightness Start Highest point End Pass type
(mag) Time Alt. Az. Time Alt. Az. Time Alt. Az.
08 Dec 7.5 04:43:54 10° SW 07:26:57 46° WSW 13:53:32 10° S visible
09 Dec 8.2 01:04:07 10° S 08:52:45 74° S 10:17:51 10° ESE visible
09 Dec 9.7 23:33:05 10° E 04:38:31 42° E 06:27:17 10° E visible
11 Dec 7.6 04:34:50 10° SW 07:16:35 46° WSW 13:44:47 10° S visible
12 Dec 8.1 00:54:41 10° S 08:39:53 74° S 10:09:14 10° ESE visible
12 Dec 9.8 23:19:08 10° E 04:28:29 42° E 06:18:36 10° E visible
14 Dec 7.7 04:25:48 10° SW 07:06:17 47° WSW 13:36:02 10° S visible
15 Dec 8.1 00:45:19 10° S 08:26:02 74° SSW 10:00:38 10° ESE visible
15 Dec 9.7 23:05:11 10° E 04:18:27 42° E 06:09:56 10° E visible
